| time (UTC) | temp F | wind direction | speed knots | gust knots | rain 1hr in | rain 24hr in | rain mn in | humidity % | barometer mb |
| 20260504221002 | 79 | 218 | 3.5 | 9.6 | 0.00 | 0.00 | 0.00 | 61 | 1010.4 |
| 20260504220502 | 79 | 158 | 3.5 | 7.8 | 0.00 | 0.00 | 0.00 | 62 | 1010.4 |
| 20260504220027 | 79 | 176 | 3.5 | 12.2 | 0.00 | 0.00 | 0.00 | 61 | 1010.3 |
| 20260504215502 | 79 | 176 | 3.5 | 9.6 | 0.00 | 0.00 | 0.00 | 60 | 1010.5 |
| 20260504215003 | 80 | 212 | 3.5 | 12.2 | 0.00 | 0.00 | 0.00 | 60 | 1010.5 |
| 20260504214517 | 80 | 148 | 3.5 | 12.2 | 0.00 | 0.00 | 0.00 | 59 | 1010.6 |
| 20260504213501 | 80 | 187 | 3.5 | 9.6 | 0.00 | 0.00 | 0.00 | 59 | 1010.7 |
| 20260504213026 | 80 | 183 | 2.6 | 9.6 | 0.00 | 0.00 | 0.00 | 60 | 1010.7 |
| 20260504212502 | 80 | 158 | 2.6 | 9.6 | 0.00 | 0.00 | 0.00 | 59 | 1010.7 |
| 20260504211516 | 81 | 195 | 3.5 | 7.8 | 0.00 | 0.00 | 0.00 | 58 | 1011.0 |
| 20260504211003 | 81 | 195 | 2.6 | 8.7 | 0.00 | 0.00 | 0.00 | 57 | 1010.9 |
| 20260504210503 | 81 | 185 | 2.6 | 7.0 | 0.00 | 0.00 | 0.00 | 59 | 1011.0 |
| 20260504210033 | 81 | 161 | 2.6 | 9.6 | 0.00 | 0.00 | 0.00 | 57 | 1010.9 |
| 20260504205501 | 81 | 196 | 3.5 | 9.6 | 0.00 | 0.00 | 0.00 | 57 | 1011.0 |
| 20260504205002 | 82 | 204 | 3.5 | 7.8 | 0.00 | 0.00 | 0.00 | 56 | 1011.2 |
| 20260504204516 | 82 | 152 | 3.5 | 7.8 | 0.00 | 0.00 | 0.00 | 56 | 1011.3 |
| 20260504204001 | 82 | 161 | 3.5 | 8.7 | 0.00 | 0.00 | 0.00 | 57 | 1011.3 |
| 20260504203024 | 81 | 179 | 3.5 | 8.7 | 0.00 | 0.00 | 0.00 | 56 | 1011.4 |
| 20260504202501 | 81 | 207 | 3.5 | 8.7 | 0.00 | 0.00 | 0.00 | 57 | 1011.5 |
| 20260504202000 | 81 | 104 | 3.5 | 8.7 | 0.00 | 0.00 | 0.00 | 58 | 1011.7 |
| 20260504201515 | 82 | 183 | 2.6 | 8.7 | 0.00 | 0.00 | 0.00 | 56 | 1011.8 |
| 20260504200500 | 81 | 156 | 2.6 | 10.4 | 0.00 | 0.00 | 0.00 | 57 | 1011.9 |
| 20260504200026 | 80 | 202 | 2.6 | 10.4 | 0.00 | 0.00 | 0.00 | 57 | 1012.1 |
| 20260504195502 | 80 | 162 | 2.6 | 9.6 | 0.00 | 0.00 | 0.00 | 57 | 1012.1 |
| 20260504195002 | 80 | 156 | 3.5 | 7.0 | 0.00 | 0.00 | 0.00 | 58 | 1012.2 |
| 20260504194517 | 80 | 134 | 3.5 | 6.1 | 0.00 | 0.00 | 0.00 | 56 | 1012.2 |
| 20260504194004 | 81 | 160 | 2.6 | 8.7 | 0.00 | 0.00 | 0.00 | 56 | 1012.1 |
| 20260504193503 | 82 | 108 | 2.6 | 8.7 | 0.00 | 0.00 | 0.00 | 59 | 1012.3 |
| 20260504193027 | 82 | 186 | 2.6 | 7.8 | 0.00 | 0.00 | 0.00 | 55 | 1012.4 |
| 20260504192501 | 82 | 270 | 2.6 | 7.0 | 0.00 | 0.00 | 0.00 | 56 | 1012.3 |
| 20260504192004 | 82 | 244 | 2.6 | 8.7 | 0.00 | 0.00 | 0.00 | 55 | 1012.4 |
| 20260504191516 | 81 | 122 | 2.6 | 8.7 | 0.00 | 0.00 | 0.00 | 60 | 1012.5 |
| 20260504191002 | 80 | 260 | 3.5 | 9.6 | 0.00 | 0.00 | 0.00 | 56 | 1012.5 |
| 20260504190026 | 80 | 208 | 4.3 | 12.2 | 0.00 | 0.00 | 0.00 | 57 | 1012.7 |
| 20260504185500 | 80 | 274 | 3.5 | 7.8 | 0.00 | 0.00 | 0.00 | 57 | 1012.9 |
| 20260504185002 | 80 | 206 | 3.5 | 8.7 | 0.00 | 0.00 | 0.00 | 55 | 1013.0 |
| 20260504184515 | 80 | 156 | 3.5 | 9.6 | 0.00 | 0.00 | 0.00 | 56 | 1012.9 |
| 20260504184001 | 80 | 162 | 3.5 | 8.7 | 0.00 | 0.00 | 0.00 | 56 | 1013.0 |
| 20260504183500 | 80 | 173 | 3.5 | 9.6 | 0.00 | 0.00 | 0.00 | 56 | 1013.0 |
| 20260504181516 | 80 | 140 | 3.5 | 11.3 | 0.00 | 0.00 | 0.00 | 59 | 1013.1 |
| 20260504181001 | 80 | 177 | 3.5 | 11.3 | 0.00 | 0.00 | 0.00 | 59 | 1013.2 |
| 20260504180501 | 80 | 130 | 3.5 | 8.7 | 0.00 | 0.00 | 0.00 | 59 | 1013.4 |
| 20260504180026 | 79 | 179 | 3.5 | 9.6 | 0.00 | 0.00 | 0.00 | 60 | 1013.4 |
| 20260504175000 | 79 | 142 | 3.5 | 9.6 | 0.00 | 0.00 | 0.00 | 57 | 1013.6 |
| 20260504174515 | 80 | 179 | 3.5 | 9.6 | 0.00 | 0.00 | 0.00 | 57 | 1013.6 |
| 20260504174001 | 79 | 85 | 3.5 | 7.8 | 0.00 | 0.00 | 0.00 | 59 | 1013.7 |
| 20260504173500 | 78 | 217 | 4.3 | 10.4 | 0.00 | 0.00 | 0.00 | 59 | 1013.8 |
| 20260504173027 | 79 | 170 | 4.3 | 9.6 | 0.00 | 0.00 | 0.00 | 57 | 1013.8 |
| 20260504172000 | 78 | 158 | 3.5 | 9.6 | 0.00 | 0.00 | 0.00 | 59 | 1013.9 |
| 20260504171515 | 78 | 166 | 3.5 | 9.6 | 0.00 | 0.00 | 0.00 | 58 | 1014.2 |
| 20260504171001 | 78 | 141 | 3.5 | 9.6 | 0.00 | 0.00 | 0.00 | 59 | 1014.3 |
| 20260504141002 | 70 | 163 | 2.6 | 7.8 | 0.00 | 0.00 | 0.00 | 65 | 1015.0 |
| 20260504140500 | 70 | 220 | 2.6 | 7.8 | 0.00 | 0.00 | 0.00 | 65 | 1015.2 |
| 20260504130459 | 64 | 108 | 1.7 | 3.5 | 0.00 | 0.00 | 0.00 | 73 | 1015.1 |
| 20260504110459 | 57 | 131 | 0.0 | 0.9 | 0.00 | 0.00 | 0.00 | 81 | 1014.5 |
| 20260504100500 | 58 | 145 | 0.0 | 0.9 | 0.00 | 0.00 | 0.00 | 81 | 1014.9 |
| 20260504081959 | 61 | 186 | 0.0 | 0.9 | 0.00 | 0.00 | 0.00 | 75 | 1015.4 |
| 20260504080959 | 60 | 186 | 0.0 | 1.7 | 0.00 | 0.00 | 0.00 | 77 | 1015.6 |
| 20260504080458 | 60 | 166 | 0.0 | 0.9 | 0.00 | 0.00 | 0.00 | 77 | 1015.6 |
| 20260504050503 | 63 | 191 | 0.0 | 0.9 | 0.00 | 0.00 | 0.00 | 68 | 1017.5 |
| 20260504045502 | 64 | 193 | 0.0 | 1.7 | 0.00 | 0.00 | 0.00 | 67 | 1017.6 |
| 20260504045004 | 64 | 186 | 0.9 | 2.6 | 0.00 | 0.00 | 0.00 | 67 | 1017.5 |
| 20260504044003 | 65 | 171 | 0.9 | 2.6 | 0.00 | 0.00 | 0.00 | 66 | 1017.6 |
| 20260504043503 | 65 | 183 | 0.0 | 1.7 | 0.00 | 0.00 | 0.00 | 65 | 1017.7 |
| 20260504043026 | 65 | 179 | 0.0 | 1.7 | 0.00 | 0.00 | 0.00 | 65 | 1017.5 |
| 20260504042502 | 65 | 179 | 0.0 | 1.7 | 0.00 | 0.00 | 0.00 | 64 | 1017.6 |
| 20260504042002 | 65 | 187 | 0.9 | 1.7 | 0.00 | 0.00 | 0.00 | 64 | 1017.6 |
| 20260504041517 | 65 | 134 | 0.9 | 2.6 | 0.00 | 0.00 | 0.00 | 65 | 1017.5 |
| 20260504041003 | 65 | 191 | 0.9 | 2.6 | 0.00 | 0.00 | 0.00 | 63 | 1017.7 |
| 20260504040502 | 66 | 142 | 0.9 | 1.7 | 0.00 | 0.00 | 0.00 | 63 | 1017.7 |
| 20260504040026 | 66 | 175 | 0.9 | 2.6 | 0.00 | 0.00 | 0.00 | 62 | 1017.6 |
| 20260504035503 | 66 | 184 | 0.9 | 2.6 | 0.00 | 0.00 | 0.00 | 62 | 1017.6 |
| 20260504034517 | 67 | 159 | 0.9 | 6.1 | 0.00 | 0.00 | 0.00 | 60 | 1017.7 |
| 20260504034004 | 67 | 186 | 0.9 | 6.1 | 0.00 | 0.00 | 0.00 | 59 | 1017.6 |
| 20260504033025 | 67 | 199 | 1.7 | 3.5 | 0.00 | 0.00 | 0.00 | 59 | 1017.7 |
| 20260504032004 | 67 | 179 | 0.9 | 2.6 | 0.00 | 0.00 | 0.00 | 58 | 1017.7 |
| 20260504031517 | 68 | 157 | 0.9 | 4.3 | 0.00 | 0.00 | 0.00 | 58 | 1017.6 |
| 20260504031002 | 68 | 187 | 0.9 | 4.3 | 0.00 | 0.00 | 0.00 | 57 | 1017.6 |
| 20260504030502 | 68 | 182 | 1.7 | 3.5 | 0.00 | 0.00 | 0.00 | 57 | 1017.6 |
| 20260504030028 | 68 | 203 | 1.7 | 4.3 | 0.00 | 0.00 | 0.00 | 57 | 1017.5 |
| 20260504025502 | 68 | 156 | 1.7 | 3.5 | 0.00 | 0.00 | 0.00 | 56 | 1017.5 |
| 20260504025003 | 68 | 158 | 0.9 | 2.6 | 0.00 | 0.00 | 0.00 | 56 | 1017.2 |
| 20260504024003 | 69 | 145 | 1.7 | 6.1 | 0.00 | 0.00 | 0.00 | 56 | 1017.2 |
| 20260504023502 | 69 | 139 | 1.7 | 6.1 | 0.00 | 0.00 | 0.00 | 54 | 1017.1 |
| 20260504023025 | 69 | 155 | 1.7 | 6.1 | 0.00 | 0.00 | 0.00 | 55 | 1017.2 |
| 20260504022502 | 70 | 146 | 1.7 | 6.1 | 0.00 | 0.00 | 0.00 | 53 | 1017.2 |
| 20260504022004 | 70 | 171 | 1.7 | 6.1 | 0.00 | 0.00 | 0.00 | 53 | 1017.3 |
| 20260504021516 | 70 | 156 | 1.7 | 6.1 | 0.00 | 0.00 | 0.00 | 52 | 1017.3 |
| 20260504021002 | 70 | 170 | 2.6 | 6.1 | 0.00 | 0.00 | 0.00 | 52 | 1017.2 |
| 20260504020501 | 70 | 159 | 2.6 | 6.1 | 0.00 | 0.00 | 0.00 | 52 | 1017.1 |
| 20260504020030 | 71 | 189 | 1.7 | 6.1 | 0.00 | 0.00 | 0.00 | 52 | 1017.0 |
| 20260504015503 | 71 | 182 | 1.7 | 7.0 | 0.00 | 0.00 | 0.00 | 51 | 1017.0 |
| 20260504015003 | 71 | 180 | 1.7 | 7.0 | 0.00 | 0.00 | 0.00 | 51 | 1017.0 |
| 20260504014517 | 71 | 185 | 2.6 | 5.2 | 0.00 | 0.00 | 0.00 | 50 | 1017.0 |
| 20260504014003 | 71 | 166 | 1.7 | 6.1 | 0.00 | 0.00 | 0.00 | 50 | 1016.9 |
| 20260504013503 | 72 | 168 | 2.6 | 6.1 | 0.00 | 0.00 | 0.00 | 50 | 1016.8 |
| 20260504013029 | 72 | 167 | 1.7 | 6.1 | 0.00 | 0.00 | 0.00 | 51 | 1016.8 |
| 20260504012502 | 72 | 168 | 1.7 | 4.3 | 0.00 | 0.00 | 0.00 | 50 | 1016.9 |
| 20260504012004 | 72 | 171 | 2.6 | 6.1 | 0.00 | 0.00 | 0.00 | 49 | 1016.7 |
| 20260504011517 | 72 | 162 | 1.7 | 4.3 | 0.00 | 0.00 | 0.00 | 49 | 1016.6 |
| 20260504010502 | 73 | 179 | 1.7 | 7.0 | 0.00 | 0.00 | 0.00 | 48 | 1016.7 |
| 20260504010025 | 73 | 204 | 1.7 | 3.5 | 0.00 | 0.00 | 0.00 | 48 | 1016.7 |
| 20260504005002 | 73 | 135 | 1.7 | 7.8 | 0.00 | 0.00 | 0.00 | 48 | 1016.6 |
| 20260504004516 | 74 | 166 | 2.6 | 7.8 | 0.00 | 0.00 | 0.00 | 46 | 1016.6 |
| 20260504003025 | 74 | 155 | 1.7 | 6.1 | 0.00 | 0.00 | 0.00 | 46 | 1016.7 |
| 20260504002501 | 75 | 160 | 1.7 | 8.7 | 0.00 | 0.00 | 0.00 | 46 | 1016.7 |
| 20260504002002 | 75 | 214 | 2.6 | 8.7 | 0.00 | 0.00 | 0.00 | 45 | 1016.6 |
| 20260504001516 | 75 | 157 | 3.5 | 7.0 | 0.00 | 0.00 | 0.00 | 44 | 1016.7 |
| 20260504001001 | 76 | 111 | 3.5 | 7.8 | 0.00 | 0.00 | 0.00 | 43 | 1016.7 |
| 20260504000501 | 76 | 175 | 2.6 | 8.7 | 0.00 | 0.00 | 0.00 | 43 | 1016.6 |
| 20260504000024 | 76 | 200 | 2.6 | 8.7 | 0.00 | 0.00 | 0.00 | 41 | 1016.7 |
| 20260503235500 | 77 | 200 | 2.6 | 6.1 | 0.00 | 0.00 | 0.00 | 38 | 1016.7 |
| 20260503235002 | 77 | 154 | 1.7 | 6.1 | 0.00 | 0.00 | 0.00 | 35 | 1016.8 |
| 20260503234516 | 77 | 89 | 1.7 | 6.1 | 0.00 | 0.00 | 0.00 | 37 | 1016.8 |
| 20260503234002 | 78 | 227 | 1.7 | 7.0 | 0.00 | 0.00 | 0.00 | 36 | 1016.7 |
| 20260503233501 | 78 | 139 | 2.6 | 7.0 | 0.00 | 0.00 | 0.00 | 35 | 1016.8 |
| 20260503233025 | 78 | 144 | 1.7 | 7.0 | 0.00 | 0.00 | 0.00 | 36 | 1016.9 |
| 20260503232500 | 78 | 181 | 2.6 | 6.1 | 0.00 | 0.00 | 0.00 | 36 | 1016.8 |
| 20260503232002 | 78 | 98 | 2.6 | 6.1 | 0.00 | 0.00 | 0.00 | 34 | 1016.9 |
| 20260503231515 | 79 | 175 | 2.6 | 7.0 | 0.00 | 0.00 | 0.00 | 33 | 1017.0 |
| 20260503231002 | 79 | 250 | 2.6 | 7.0 | 0.00 | 0.00 | 0.00 | 36 | 1016.9 |
| 20260503230502 | 79 | 204 | 2.6 | 5.2 | 0.00 | 0.00 | 0.00 | 34 | 1016.9 |
| 20260503230027 | 79 | 152 | 2.6 | 7.0 | 0.00 | 0.00 | 0.00 | 37 | 1016.9 |
| 20260503225001 | 79 | 148 | 3.5 | 8.7 | 0.00 | 0.00 | 0.00 | 35 | 1017.0 |
| 20260503224516 | 79 | 142 | 2.6 | 8.7 | 0.00 | 0.00 | 0.00 | 35 | 1017.1 |
| 20260503223500 | 79 | 2 | 2.6 | 6.1 | 0.00 | 0.00 | 0.00 | 35 | 1017.1 |
| 20260503222501 | 79 | 196 | 1.7 | 7.0 | 0.00 | 0.00 | 0.00 | 36 | 1017.3 |
| 20260503222002 | 79 | 119 | 1.7 | 7.0 | 0.00 | 0.00 | 0.00 | 36 | 1017.3 |
| 20260503221515 | 80 | 193 | 1.7 | 4.3 | 0.00 | 0.00 | 0.00 | 36 | 1017.6 |